Location: ????????
(55.6333°N, 37.7000°E)
Time: 04:18:43
(UTC+00:00)

ARIANE 5 R/B - Pass Details

Date: 19 May 2025
Orbit: 614 x 648 km, 98.0° (Epoch: 16 June)

Event Time Altitude Azimuth Distance (km) Brightness Sun altitude
Exits shadow 21:23:54 14° 224° (SW) 1,728 4.4 -14.4°
Maximum altitude 21:26:29 23° 269° (W) 1,334 4.2 -14.4°
Drops below altitude 10° 21:29:58 10° 322° (NW) 2,007 5.9 -14.4°
Sets 21:32:34 0° 337° (NNW) 2,925 7.3 -14.4°
